Voltar ao catálogo

STARLINK-35137

AtivoComunicaçõesVLEO
NORAD 65686·PAYLOAD·🇺🇸 United States

Lançado Sep 21, 2025 de Cape Canaveral Space Force Station

Loading…

Próximas Passagens (próximas 24 horas)

TLE

AtualizadoSource: CelesTrak SupGP

Época: Sep 14, 2026, 21:19 UTC

1 65686C 25212L   26257.88868056 -.00020455  00000+0 -60407-3 0  2578
2 65686  53.1569 173.6488 0001422 107.2278 348.6300 15.34415906    18

Acompanhe STARLINK-35137 em tempo real com AllMySat

Download on the App Store